Location: Grand Lay
(47.3253°N, 0.9468°E)
Time: 08:18:48
(UTC+00:00)

ATLAS 2AS CENTAUR R/B - Pass Details

Date: 18 January 2026
Orbit: 1050 x 1161 km, 63.7° (Epoch: 16 February)

Event Time Altitude Azimuth Distance (km) Brightness Sun altitude
Exits shadow 05:04:09 33° 332° (NNW) 1,697 3.5 -25.4°
Maximum altitude 05:07:23 70° 47° (NE) 1,117 2.8 -24.8°
Drops below altitude 10° 05:14:07 10° 131° (SE) 2,867 5.7 -23.7°
Sets 05:16:46 0° 133° (SE) 3,826 6.4 -23.2°
